Time,TemperatureF,DewpointF,PressureIn,WindDirection,WindDirectionDegrees,WindSpeedMPH,WindSpeedGustMPH,Humidity,HourlyPrecipIn,Conditions,Clouds,dailyrainin,SoftwareType,DateUTC
2013-01-07 00:01:00,43.7,29.5,29.89,NNW,337,0.0,4.2,57,0.00,,SCT,0.00,WUHU21623XXSP,2013-01-06 22:01:00,
2013-01-07 00:28:00,44.1,29.4,29.90,SW,225,0.0,0.0,56,0.00,,FEW,0.00,WUHU21623XXSP,2013-01-06 22:28:00,
2013-01-07 01:28:00,42.6,28.9,29.90,NW,315,0.0,0.0,58,0.00,,FEW,0.00,WUHU21623XXSP,2013-01-06 23:28:00,
2013-01-07 02:28:00,41.9,28.2,29.90,North,0,2.4,2.4,58,0.00,,FEW,0.00,WUHU21623XXSP,2013-01-07 00:28:00,
2013-01-07 03:28:00,41.0,27.4,29.92,NW,315,0.0,0.0,58,0.00,,FEW,0.00,WUHU21623XXSP,2013-01-07 01:28:00,
2013-01-07 04:28:00,39.4,25.5,29.89,NE,45,0.0,0.0,57,0.00,,FEW,0.00,WUHU21623XXSP,2013-01-07 02:28:00,
2013-01-07 05:28:00,38.1,25.9,29.87,NNW,338,0.0,0.0,61,0.00,,FEW,0.00,WUHU21623XXSP,2013-01-07 03:28:00,
2013-01-07 06:28:00,39.4,24.6,29.88,SW,225,0.0,0.0,55,0.00,,FEW,0.00,WUHU21623XXSP,2013-01-07 04:28:00,
2013-01-07 07:28:00,39.4,23.7,29.91,SW,225,0.0,0.0,53,0.00,,FEW,0.00,WUHU21623XXSP,2013-01-07 05:28:00,
2013-01-07 08:28:00,38.3,24.0,29.91,NNE,23,0.0,0.0,56,0.00,,FEW,0.00,WUHU21623XXSP,2013-01-07 06:28:00,
2013-01-07 09:05:00,42.3,24.4,29.91,SW,225,0.0,0.0,49,0.00,,FEW,0.00,WUHU21623XXSP,2013-01-07 07:05:00,
2013-01-07 09:06:00,42.3,24.4,29.91,SSW,202,0.0,0.0,49,0.00,,FEW,0.00,WUHU21623XXSP,2013-01-07 07:06:00,
2013-01-07 09:11:00,42.6,23.1,29.91,South,180,0.0,0.0,46,0.00,,FEW,0.00,WUHU21623XXSP,2013-01-07 07:11:00,
2013-01-07 09:16:00,43.2,23.7,29.91,SSE,157,0.0,0.0,46,0.00,,FEW,0.00,WUHU21623XXSP,2013-01-07 07:16:00,
2013-01-07 09:21:00,43.7,21.3,29.91,South,180,0.0,3.0,41,0.00,,FEW,0.00,WUHU21623XXSP,2013-01-07 07:21:00,
2013-01-07 09:26:00,44.1,17.3,29.91,WSW,247,0.0,3.0,34,0.00,,FEW,0.00,WUHU21623XXSP,2013-01-07 07:26:00,
2013-01-07 09:31:00,44.2,17.4,29.91,SW,225,0.0,2.8,34,0.00,,FEW,0.00,WUHU21623XXSP,2013-01-07 07:31:00,
2013-01-07 09:36:00,45.0,18.1,29.91,WNW,292,0.0,1.8,34,0.00,,FEW,0.00,WUHU21623XXSP,2013-01-07 07:36:00,
2013-01-07 09:41:00,45.3,18.3,29.91,NNW,337,3.0,5.2,34,0.00,,FEW,0.00,WUHU21623XXSP,2013-01-07 07:41:00,
2013-01-07 09:46:00,45.5,18.5,29.91,WSW,247,0.0,5.9,34,0.00,,FEW,0.00,WUHU21623XXSP,2013-01-07 07:46:00,
2013-01-07 09:51:00,46.0,18.9,29.91,North,0,0.0,5.9,34,0.00,,FEW,0.00,WUHU21623XXSP,2013-01-07 07:51:00,
2013-01-07 09:56:00,46.2,19.1,29.91,North,0,0.0,1.8,34,0.00,,FEW,0.00,WUHU21623XXSP,2013-01-07 07:56:00,
2013-01-07 10:01:00,46.6,19.5,29.91,NNE,22,0.0,5.6,34,0.00,,FEW,0.00,WUHU21623XXSP,2013-01-07 08:01:00,
2013-01-07 10:06:00,46.9,19.7,29.91,NNW,337,0.0,5.6,34,0.00,,FEW,0.00,WUHU21623XXSP,2013-01-07 08:06:00,
2013-01-07 10:11:00,47.7,20.4,29.92,SE,135,0.0,3.7,34,0.00,,FEW,0.00,WUHU21623XXSP,2013-01-07 08:11:00,
2013-01-07 10:16:00,48.0,20.7,29.91,North,0,0.0,4.9,34,0.00,,FEW,0.00,WUHU21623XXSP,2013-01-07 08:16:00,
2013-01-07 10:21:00,48.6,21.2,29.91,NNW,337,2.0,6.9,34,0.00,,FEW,0.00,WUHU21623XXSP,2013-01-07 08:21:00,
2013-01-07 10:26:00,48.9,21.5,29.91,NE,45,10.8,10.8,34,0.00,,FEW,0.00,WUHU21623XXSP,2013-01-07 08:26:00,
2013-01-07 10:31:00,48.7,21.3,29.91,NNW,337,3.2,10.8,34,0.00,,FEW,0.00,WUHU21623XXSP,2013-01-07 08:31:00,
2013-01-07 10:36:00,48.9,21.5,29.91,NNW,337,2.2,9.8,34,0.00,,FEW,0.00,WUHU21623XXSP,2013-01-07 08:36:00,
2013-01-07 10:41:00,49.1,21.7,29.91,North,0,0.0,5.4,34,0.00,,FEW,0.00,WUHU21623XXSP,2013-01-07 08:41:00,
2013-01-07 10:46:00,49.6,22.1,29.91,NW,315,0.0,6.4,34,0.00,,FEW,0.00,WUHU21623XXSP,2013-01-07 08:46:00,
2013-01-07 10:51:00,50.0,23.2,29.91,NW,315,0.0,6.4,35,0.00,,FEW,0.00,WUHU21623XXSP,2013-01-07 08:51:00,
2013-01-07 10:56:00,49.8,22.3,29.91,NNW,337,0.0,4.7,34,0.00,,FEW,0.00,WUHU21623XXSP,2013-01-07 08:56:00,
2013-01-07 11:01:00,50.2,22.7,29.90,NNW,337,0.0,4.4,34,0.00,,FEW,0.00,WUHU21623XXSP,2013-01-07 09:01:00,
2013-01-07 11:06:00,50.4,22.8,29.90,NNW,337,0.0,8.1,34,0.00,,FEW,0.00,WUHU21623XXSP,2013-01-07 09:06:00,
2013-01-07 11:11:00,50.4,22.8,29.90,NNE,22,0.0,8.1,34,0.00,,FEW,0.00,WUHU21623XXSP,2013-01-07 09:11:00,
2013-01-07 11:16:00,50.7,23.1,29.90,NW,315,5.2,9.8,34,0.00,,FEW,0.00,WUHU21623XXSP,2013-01-07 09:16:00,
2013-01-07 11:21:00,51.3,23.6,29.89,NNW,337,2.0,10.8,34,0.00,,FEW,0.00,WUHU21623XXSP,2013-01-07 09:21:00,
2013-01-07 11:26:00,51.3,23.6,29.90,NNW,337,2.0,10.8,34,0.00,,FEW,0.00,WUHU21623XXSP,2013-01-07 09:26:00,
2013-01-07 11:31:00,50.9,23.3,29.89,WNW,292,6.9,6.9,34,0.00,,FEW,0.00,WUHU21623XXSP,2013-01-07 09:31:00,
2013-01-07 11:36:00,51.1,23.5,29.89,North,0,0.0,6.9,34,0.00,,FEW,0.00,WUHU21623XXSP,2013-01-07 09:36:00,
2013-01-07 11:41:00,51.3,23.6,29.89,NNW,337,0.0,4.9,34,0.00,,FEW,0.00,WUHU21623XXSP,2013-01-07 09:41:00,
2013-01-07 11:46:00,51.3,23.6,29.89,SSW,202,1.4,4.4,34,0.00,,FEW,0.00,WUHU21623XXSP,2013-01-07 09:46:00,
2013-01-07 11:51:00,51.1,23.5,29.89,WNW,292,1.2,4.4,34,0.00,,FEW,0.00,WUHU21623XXSP,2013-01-07 09:51:00,
2013-01-07 11:56:00,50.9,23.3,29.88,NE,45,0.0,4.4,34,0.00,,FEW,0.00,WUHU21623XXSP,2013-01-07 09:56:00,
2013-01-07 12:01:00,51.1,23.5,29.88,NW,315,6.4,6.4,34,0.00,,FEW,0.00,WUHU21623XXSP,2013-01-07 10:01:00,
2013-01-07 12:06:00,51.3,23.6,29.88,NW,315,0.0,6.4,34,0.00,,FEW,0.00,WUHU21623XXSP,2013-01-07 10:06:00,
2013-01-07 12:11:00,51.3,23.6,29.88,NNW,337,0.0,6.2,34,0.00,,FEW,0.00,WUHU21623XXSP,2013-01-07 10:11:00,
2013-01-07 12:16:00,51.4,23.7,29.88,ESE,112,0.0,4.0,34,0.00,,FEW,0.00,WUHU21623XXSP,2013-01-07 10:16:00,
2013-01-07 12:21:00,51.6,23.9,29.88,North,0,0.0,3.4,34,0.00,,FEW,0.00,WUHU21623XXSP,2013-01-07 10:21:00,
2013-01-07 12:26:00,51.6,23.9,29.88,SW,225,4.9,4.9,34,0.00,,FEW,0.00,WUHU21623XXSP,2013-01-07 10:26:00,
2013-01-07 12:31:00,51.6,23.9,29.88,WSW,247,0.0,4.9,34,0.00,,FEW,0.00,WUHU21623XXSP,2013-01-07 10:31:00,
2013-01-07 12:36:00,51.8,24.1,29.87,West,270,2.0,5.4,34,0.00,,FEW,0.00,WUHU21623XXSP,2013-01-07 10:36:00,
2013-01-07 12:41:00,52.0,24.3,29.88,North,0,0.0,8.1,34,0.00,,FEW,0.00,WUHU21623XXSP,2013-01-07 10:41:00,
2013-01-07 12:46:00,52.0,24.3,29.87,WSW,247,1.0,8.1,34,0.00,,FEW,0.00,WUHU21623XXSP,2013-01-07 10:46:00,
2013-01-07 12:51:00,52.0,24.3,29.87,WNW,292,3.4,5.2,34,0.00,,FEW,0.00,WUHU21623XXSP,2013-01-07 10:51:00,
2013-01-07 12:56:00,52.0,24.3,29.87,NW,315,0.0,8.9,34,0.00,,FEW,0.00,WUHU21623XXSP,2013-01-07 10:56:00,
2013-01-07 13:01:00,52.0,24.3,29.87,North,0,0.0,8.9,34,0.00,,FEW,0.00,WUHU21623XXSP,2013-01-07 11:01:00,
2013-01-07 13:06:00,52.0,25.0,29.87,SW,225,0.0,3.2,35,0.00,,FEW,0.00,WUHU21623XXSP,2013-01-07 11:06:00,
2013-01-07 13:11:00,52.0,24.3,29.87,West,270,0.0,4.7,34,0.00,,FEW,0.00,WUHU21623XXSP,2013-01-07 11:11:00,
2013-01-07 13:16:00,52.2,25.1,29.87,WNW,292,0.0,5.6,35,0.00,,FEW,0.00,WUHU21623XXSP,2013-01-07 11:16:00,
2013-01-07 13:21:00,52.3,26.6,29.87,West,270,0.0,5.6,37,0.00,,FEW,0.00,WUHU21623XXSP,2013-01-07 11:21:00,
2013-01-07 13:26:00,52.5,27.4,29.87,WSW,247,0.0,2.8,38,0.00,,FEW,0.00,WUHU21623XXSP,2013-01-07 11:26:00,
2013-01-07 13:31:00,52.5,26.8,29.86,NNW,337,0.0,3.4,37,0.00,,FEW,0.00,WUHU21623XXSP,2013-01-07 11:31:00,
2013-01-07 13:36:00,52.5,26.8,29.86,NNW,337,0.0,3.7,37,0.00,,FEW,0.00,WUHU21623XXSP,2013-01-07 11:36:00,
2013-01-07 13:41:00,52.5,26.8,29.86,NW,315,0.0,3.7,37,0.00,,FEW,0.00,WUHU21623XXSP,2013-01-07 11:41:00,
2013-01-07 13:46:00,52.7,24.9,29.86,West,270,0.0,1.2,34,0.00,,FEW,0.00,WUHU21623XXSP,2013-01-07 11:46:00,
2013-01-07 13:51:00,52.5,26.8,29.86,WSW,247,0.0,1.2,37,0.00,,FEW,0.00,WUHU21623XXSP,2013-01-07 11:51:00,
2013-01-07 13:56:00,52.7,26.9,29.85,WSW,247,0.0,0.0,37,0.00,,FEW,0.00,WUHU21623XXSP,2013-01-07 11:56:00,
2013-01-07 14:01:00,52.5,26.1,29.85,NE,45,0.0,2.2,36,0.00,,FEW,0.00,WUHU21623XXSP,2013-01-07 12:01:00,
2013-01-07 14:06:00,52.7,26.9,29.85,SSE,157,0.0,2.2,37,0.00,,FEW,0.00,WUHU21623XXSP,2013-01-07 12:06:00,
2013-01-07 14:11:00,52.7,26.9,29.85,NE,45,0.0,0.0,37,0.00,,FEW,0.00,WUHU21623XXSP,2013-01-07 12:11:00,
2013-01-07 14:16:00,52.5,25.4,29.85,NNW,337,0.0,1.8,35,0.00,,FEW,0.00,WUHU21623XXSP,2013-01-07 12:16:00,
2013-01-07 14:21:00,52.5,26.8,29.85,NNE,22,0.0,1.8,37,0.00,,FEW,0.00,WUHU21623XXSP,2013-01-07 12:21:00,
2013-01-07 14:26:00,52.7,26.9,29.85,North,0,0.0,3.7,37,0.00,,FEW,0.00,WUHU21623XXSP,2013-01-07 12:26:00,
2013-01-07 14:31:00,52.7,26.3,29.85,NNE,22,5.9,6.6,36,0.00,,FEW,0.00,WUHU21623XXSP,2013-01-07 12:31:00,
2013-01-07 14:36:00,52.5,26.1,29.85,ENE,67,4.0,6.6,36,0.00,,FEW,0.00,WUHU21623XXSP,2013-01-07 12:36:00,
2013-01-07 14:41:00,52.5,26.1,29.85,NE,45,3.2,6.4,36,0.00,,FEW,0.00,WUHU21623XXSP,2013-01-07 12:41:00,
2013-01-07 14:46:00,52.7,26.3,29.86,NNE,22,0.0,6.4,36,0.00,,FEW,0.00,WUHU21623XXSP,2013-01-07 12:46:00,
2013-01-07 14:51:00,52.9,25.8,29.86,NNE,22,8.4,8.4,35,0.00,,FEW,0.00,WUHU21623XXSP,2013-01-07 12:51:00,
2013-01-07 14:56:00,52.9,25.0,29.86,NNE,22,8.9,8.9,34,0.00,,FEW,0.00,WUHU21623XXSP,2013-01-07 12:56:00,
2013-01-07 15:01:00,53.1,25.9,29.86,North,0,0.0,8.9,35,0.00,,FEW,0.00,WUHU21623XXSP,2013-01-07 13:01:00,
2013-01-07 15:06:00,52.7,25.6,29.86,North,0,0.0,8.6,35,0.00,,FEW,0.00,WUHU21623XXSP,2013-01-07 13:06:00,
2013-01-07 15:11:00,52.7,24.9,29.87,NNE,22,0.0,8.6,34,0.00,,FEW,0.00,WUHU21623XXSP,2013-01-07 13:11:00,
2013-01-07 15:16:00,52.3,24.5,29.87,NNE,22,3.2,8.4,34,0.00,,FEW,0.00,WUHU21623XXSP,2013-01-07 13:16:00,
2013-01-07 15:21:00,52.2,25.1,29.87,NNE,22,5.2,8.4,35,0.00,,FEW,0.00,WUHU21623XXSP,2013-01-07 13:21:00,
2013-01-07 15:26:00,52.2,25.1,29.87,North,0,1.8,8.4,35,0.00,,FEW,0.00,WUHU21623XXSP,2013-01-07 13:26:00,
2013-01-07 15:31:00,52.2,25.1,29.87,North,0,1.2,14.3,35,0.00,,FEW,0.00,WUHU21623XXSP,2013-01-07 13:31:00,
2013-01-07 15:36:00,52.2,25.1,29.87,North,0,0.0,14.3,35,0.00,,FEW,0.00,WUHU21623XXSP,2013-01-07 13:36:00,
2013-01-07 15:41:00,52.0,25.6,29.87,North,0,4.4,16.3,36,0.00,,FEW,0.00,WUHU21623XXSP,2013-01-07 13:41:00,
2013-01-07 15:46:00,51.4,25.1,29.88,NNE,22,12.8,16.3,36,0.00,,FEW,0.00,WUHU21623XXSP,2013-01-07 13:46:00,
2013-01-07 15:51:00,51.3,24.3,29.88,North,0,6.6,15.9,35,0.00,,FEW,0.00,WUHU21623XXSP,2013-01-07 13:51:00,
2013-01-07 15:56:00,51.3,25.0,29.88,NNE,22,11.1,19.9,36,0.00,,FEW,0.00,WUHU21623XXSP,2013-01-07 13:56:00,
2013-01-07 16:02:00,51.3,25.7,29.88,North,0,11.6,19.9,37,0.00,,FEW,0.00,WUHU21623XXSP,2013-01-07 14:02:00,
2013-01-07 16:07:00,51.1,25.5,29.88,NNW,337,5.6,18.7,37,0.00,,FEW,0.00,WUHU21623XXSP,2013-01-07 14:07:00,
2013-01-07 16:12:00,50.9,26.6,29.88,North,0,0.0,14.7,39,0.00,,FEW,0.00,WUHU21623XXSP,2013-01-07 14:12:00,
2013-01-07 16:17:00,50.7,25.8,29.89,North,0,5.9,11.6,38,0.00,,FEW,0.00,WUHU21623XXSP,2013-01-07 14:17:00,
2013-01-07 16:22:00,50.7,27.1,29.89,North,0,3.7,13.5,40,0.00,,FEW,0.00,WUHU21623XXSP,2013-01-07 14:22:00,
2013-01-07 16:27:00,50.9,27.2,29.89,North,0,5.4,13.5,40,0.00,,FEW,0.00,WUHU21623XXSP,2013-01-07 14:27:00,
2013-01-07 16:32:00,50.9,27.9,29.88,NNE,22,7.4,9.4,41,0.00,,FEW,0.00,WUHU21623XXSP,2013-01-07 14:32:00,
2013-01-07 16:37:00,50.7,28.3,29.88,NNE,22,6.4,12.3,42,0.00,,FEW,0.00,WUHU21623XXSP,2013-01-07 14:37:00,
2013-01-07 16:42:00,50.7,28.3,29.89,ENE,67,3.4,12.3,42,0.00,,FEW,0.00,WUHU21623XXSP,2013-01-07 14:42:00,
2013-01-07 16:47:00,50.5,28.7,29.88,North,0,4.7,12.8,43,0.00,,FEW,0.00,WUHU21623XXSP,2013-01-07 14:47:00,
2013-01-07 16:52:00,50.4,28.6,29.88,North,0,12.8,12.8,43,0.00,,FEW,0.00,WUHU21623XXSP,2013-01-07 14:52:00,
2013-01-07 16:57:00,50.4,29.2,29.89,North,0,14.1,18.5,44,0.00,,FEW,0.00,WUHU21623XXSP,2013-01-07 14:57:00,
2013-01-07 17:02:00,50.2,29.6,29.88,NE,45,8.4,18.5,45,0.00,,FEW,0.00,WUHU21623XXSP,2013-01-07 15:02:00,
2013-01-07 17:07:00,50.0,29.4,29.89,NNE,22,5.9,18.3,45,0.00,,FEW,0.00,WUHU21623XXSP,2013-01-07 15:07:00,
2013-01-07 17:12:00,49.6,29.0,29.89,NNE,22,9.4,21.9,45,0.00,,FEW,0.00,WUHU21623XXSP,2013-01-07 15:12:00,
2013-01-07 17:17:00,49.5,28.9,29.89,WNW,292,6.6,21.9,45,0.00,,FEW,0.00,WUHU21623XXSP,2013-01-07 15:17:00,
2013-01-07 17:22:00,49.1,27.4,29.89,NNE,22,9.8,21.7,43,0.00,,FEW,0.00,WUHU21623XXSP,2013-01-07 15:22:00,
2013-01-07 17:27:00,49.1,21.7,29.89,NNE,22,16.5,22.1,34,0.00,,FEW,0.00,WUHU21623XXSP,2013-01-07 15:27:00,
2013-01-07 17:32:00,48.7,21.3,29.89,NNE,22,6.9,22.1,34,0.00,,FEW,0.00,WUHU21623XXSP,2013-01-07 15:32:00,
2013-01-07 17:37:00,48.9,21.5,29.89,NE,45,5.4,18.3,34,0.00,,BKN,0.00,WUHU21623XXSP,2013-01-07 15:37:00,
2013-01-07 17:42:00,48.9,21.5,29.90,NNE,22,6.9,18.3,34,0.00,,BKN,0.00,WUHU21623XXSP,2013-01-07 15:42:00,
2013-01-07 17:47:00,48.7,21.3,29.90,NNE,22,14.3,22.1,34,0.00,,BKN,0.00,WUHU21623XXSP,2013-01-07 15:47:00,
2013-01-07 17:52:00,48.6,28.1,29.90,North,0,12.5,22.1,45,0.00,,BKN,0.00,WUHU21623XXSP,2013-01-07 15:52:00,
2013-01-07 17:57:00,48.6,29.2,29.90,North,0,9.8,22.1,47,0.00,,BKN,0.00,WUHU21623XXSP,2013-01-07 15:57:00,
2013-01-07 18:02:00,48.6,28.1,29.91,NNE,22,8.9,22.1,45,0.00,,BKN,0.00,WUHU21623XXSP,2013-01-07 16:02:00,
2013-01-07 18:07:00,48.4,29.0,29.91,NNE,22,5.6,18.3,47,0.00,,BKN,0.00,WUHU21623XXSP,2013-01-07 16:07:00,
2013-01-07 18:12:00,48.4,29.0,29.91,NNW,337,10.8,16.5,47,0.00,,BKN,0.00,WUHU21623XXSP,2013-01-07 16:12:00,
2013-01-07 18:17:00,48.0,28.6,29.91,North,0,5.6,16.5,47,0.00,,BKN,0.00,WUHU21623XXSP,2013-01-07 16:17:00,
2013-01-07 18:22:00,47.8,27.9,29.91,North,0,10.8,17.7,46,0.00,,BKN,0.00,WUHU21623XXSP,2013-01-07 16:22:00,
2013-01-07 18:27:00,47.8,27.4,29.91,NE,45,5.4,17.7,45,0.00,,BKN,0.00,WUHU21623XXSP,2013-01-07 16:27:00,
2013-01-07 18:32:00,47.8,20.5,29.91,North,0,3.7,19.5,34,0.00,,BKN,0.00,WUHU21623XXSP,2013-01-07 16:32:00,
2013-01-07 18:37:00,47.7,20.4,29.92,NNE,22,15.7,19.7,34,0.00,,BKN,0.00,WUHU21623XXSP,2013-01-07 16:37:00,
2013-01-07 18:42:00,47.1,19.9,29.93,North,0,9.4,22.1,34,0.00,,BKN,0.00,WUHU21623XXSP,2013-01-07 16:42:00,
2013-01-07 18:47:00,46.8,25.3,29.93,North,0,12.8,22.1,43,0.00,,BKN,0.00,WUHU21623XXSP,2013-01-07 16:47:00,
2013-01-07 18:52:00,46.2,27.0,29.92,NE,45,12.5,17.7,47,0.00,,BKN,0.00,WUHU21623XXSP,2013-01-07 16:52:00,
2013-01-07 18:57:00,46.0,26.8,29.93,NNW,337,10.6,22.1,47,0.00,,BKN,0.00,WUHU21623XXSP,2013-01-07 16:57:00,
2013-01-07 19:02:00,46.0,26.3,29.92,North,0,6.4,22.1,46,0.00,,BKN,0.00,WUHU21623XXSP,2013-01-07 17:02:00,
2013-01-07 19:07:00,46.6,25.1,29.92,NNW,337,18.7,21.1,43,0.00,,BKN,0.00,WUHU21623XXSP,2013-01-07 17:07:00,
2013-01-07 19:12:00,46.8,19.7,29.93,North,0,13.8,22.9,34,0.00,,BKN,0.00,WUHU21623XXSP,2013-01-07 17:12:00,
2013-01-07 19:17:00,46.9,19.7,29.93,NNE,22,15.3,22.9,34,0.00,,BKN,0.00,WUHU21623XXSP,2013-01-07 17:17:00,
2013-01-07 19:22:00,47.3,20.1,29.93,NNW,337,13.5,23.6,34,0.00,,BKN,0.00,WUHU21623XXSP,2013-01-07 17:22:00,
2013-01-07 19:27:00,47.3,20.1,29.93,NW,315,7.6,23.6,34,0.00,,BKN,0.00,WUHU21623XXSP,2013-01-07 17:27:00,
2013-01-07 19:32:00,47.3,20.1,29.93,North,0,6.6,18.3,34,0.00,,BKN,0.00,WUHU21623XXSP,2013-01-07 17:32:00,
2013-01-07 19:37:00,47.3,20.1,29.94,NNE,22,5.2,20.7,34,0.00,,BKN,0.00,WUHU21623XXSP,2013-01-07 17:37:00,
2013-01-07 19:42:00,47.3,20.1,29.93,NNE,22,10.6,20.7,34,0.00,,BKN,0.00,WUHU21623XXSP,2013-01-07 17:42:00,
2013-01-07 19:47:00,47.3,20.1,29.94,NE,45,8.4,21.5,34,0.00,,BKN,0.00,WUHU21623XXSP,2013-01-07 17:47:00,
2013-01-07 19:52:00,47.1,19.9,29.95,NE,45,8.9,21.5,34,0.00,,BKN,0.00,WUHU21623XXSP,2013-01-07 17:52:00,
2013-01-07 19:57:00,47.1,19.9,29.94,ESE,112,3.2,19.5,34,0.00,,BKN,0.00,WUHU21623XXSP,2013-01-07 17:57:00,
2013-01-07 20:02:00,46.9,24.8,29.95,North,0,11.6,16.5,42,0.00,,BKN,0.00,WUHU21623XXSP,2013-01-07 18:02:00,
2013-01-07 20:07:00,46.6,26.3,29.95,ENE,67,8.4,16.5,45,0.00,,BKN,0.00,WUHU21623XXSP,2013-01-07 18:07:00,
2013-01-07 20:12:00,46.4,27.2,29.95,NNE,22,5.2,15.9,47,0.00,,BKN,0.00,WUHU21623XXSP,2013-01-07 18:12:00,
2013-01-07 20:17:00,46.0,27.3,29.95,NE,45,11.1,13.3,48,0.00,,BKN,0.00,WUHU21623XXSP,2013-01-07 18:17:00,
2013-01-07 20:22:00,45.9,27.2,29.95,NNE,22,2.8,17.3,48,0.00,,BKN,0.00,WUHU21623XXSP,2013-01-07 18:22:00,
2013-01-07 20:27:00,45.5,27.4,29.95,NNW,337,0.0,17.3,49,0.00,,BKN,0.00,WUHU21623XXSP,2013-01-07 18:27:00,
2013-01-07 20:32:00,45.3,27.2,29.95,NNE,22,4.0,16.7,49,0.00,,BKN,0.00,WUHU21623XXSP,2013-01-07 18:32:00,
2013-01-07 20:37:00,45.0,28.4,29.96,NNE,22,8.9,16.7,52,0.00,,BKN,0.00,WUHU21623XXSP,2013-01-07 18:37:00,
2013-01-07 20:42:00,44.8,29.2,29.96,ESE,112,3.7,14.3,54,0.00,,BKN,0.00,WUHU21623XXSP,2013-01-07 18:42:00,
2013-01-07 20:47:00,44.8,28.2,29.96,NNE,22,6.9,16.7,52,0.00,,BKN,0.00,WUHU21623XXSP,2013-01-07 18:47:00,
2013-01-07 20:52:00,45.0,26.9,29.96,North,0,9.1,16.7,49,0.00,,BKN,0.00,WUHU21623XXSP,2013-01-07 18:52:00,
2013-01-07 20:57:00,45.0,24.2,29.96,North,0,8.1,20.7,44,0.00,,BKN,0.00,WUHU21623XXSP,2013-01-07 18:57:00,
2013-01-07 21:02:00,44.8,23.5,29.96,NNE,22,17.9,20.7,43,0.00,,BKN,0.00,WUHU21623XXSP,2013-01-07 19:02:00,
2013-01-07 21:07:00,44.8,24.1,29.96,ENE,67,3.0,18.5,44,0.00,,BKN,0.00,WUHU21623XXSP,2013-01-07 19:07:00,
2013-01-07 21:12:00,44.8,24.6,29.96,NNE,22,10.1,17.3,45,0.00,,BKN,0.00,WUHU21623XXSP,2013-01-07 19:12:00,
2013-01-07 21:17:00,44.8,24.6,29.97,NE,45,9.1,16.3,45,0.00,,BKN,0.00,WUHU21623XXSP,2013-01-07 19:17:00,
2013-01-07 21:22:00,44.8,24.6,29.97,NNE,22,9.1,10.8,45,0.00,,BKN,0.00,WUHU21623XXSP,2013-01-07 19:22:00,
2013-01-07 21:27:00,44.6,23.3,29.96,NNE,22,1.0,9.8,43,0.00,,BKN,0.00,WUHU21623XXSP,2013-01-07 19:27:00,
2013-01-07 21:32:00,44.8,17.9,29.96,NNE,22,5.4,13.3,34,0.00,,BKN,0.00,WUHU21623XXSP,2013-01-07 19:32:00,
2013-01-07 21:37:00,44.8,17.9,29.98,NE,45,8.1,14.1,34,0.00,,BKN,0.00,WUHU21623XXSP,2013-01-07 19:37:00,
2013-01-07 21:42:00,45.0,18.1,29.97,NE,45,0.0,14.1,34,0.00,,BKN,0.00,WUHU21623XXSP,2013-01-07 19:42:00,
2013-01-07 21:47:00,45.0,18.1,29.98,SSW,202,1.8,7.2,34,0.00,,BKN,0.00,WUHU21623XXSP,2013-01-07 19:47:00,
2013-01-07 21:52:00,45.0,18.1,29.98,SE,135,0.0,3.7,34,0.00,,BKN,0.00,WUHU21623XXSP,2013-01-07 19:52:00,
2013-01-07 21:57:00,45.0,18.1,29.98,ENE,67,6.4,9.1,34,0.00,,BKN,0.00,WUHU21623XXSP,2013-01-07 19:57:00,
2013-01-07 22:02:00,45.0,18.1,29.97,NE,45,0.0,11.6,34,0.00,,BKN,0.00,WUHU21623XXSP,2013-01-07 20:02:00,
2013-01-07 22:07:00,45.1,18.1,29.98,ESE,112,0.0,11.6,34,0.00,,BKN,0.00,WUHU21623XXSP,2013-01-07 20:07:00,
2013-01-07 22:12:00,45.1,18.1,29.98,SE,135,2.2,4.9,34,0.00,,BKN,0.00,WUHU21623XXSP,2013-01-07 20:12:00,
2013-01-07 22:17:00,45.0,18.1,29.98,NE,45,0.0,7.6,34,0.00,,BKN,0.00,WUHU21623XXSP,2013-01-07 20:17:00,
2013-01-07 22:19:00,45.0,18.1,29.98,ENE,67,0.0,7.6,34,0.00,,BKN,0.00,WUHU21623XXSP,2013-01-07 20:19:00,
2013-01-07 22:24:00,45.0,20.1,29.98,SSE,157,0.0,7.6,37,0.00,,BKN,0.00,WUHU21623XXSP,2013-01-07 20:24:00,
2013-01-07 22:29:00,44.8,19.9,29.98,North,0,0.0,0.0,37,0.00,,BKN,0.00,WUHU21623XXSP,2013-01-07 20:29:00,
2013-01-07 22:34:00,44.8,19.9,29.98,East,90,0.0,0.0,37,0.00,,BKN,0.00,WUHU21623XXSP,2013-01-07 20:34:00,
2013-01-07 22:39:00,44.8,19.9,29.98,ENE,67,6.9,9.1,37,0.00,,BKN,0.00,WUHU21623XXSP,2013-01-07 20:39:00,
2013-01-07 22:44:00,44.8,19.9,29.98,WNW,292,0.0,9.1,37,0.00,,BKN,0.00,WUHU21623XXSP,2013-01-07 20:44:00,
2013-01-07 22:49:00,44.8,19.9,29.98,ENE,67,0.0,10.6,37,0.00,,BKN,0.00,WUHU21623XXSP,2013-01-07 20:49:00,
2013-01-07 22:54:00,44.8,19.9,29.99,NW,315,0.0,10.6,37,0.00,,BKN,0.00,WUHU21623XXSP,2013-01-07 20:54:00,
2013-01-07 22:59:00,44.8,19.9,29.99,NE,45,10.3,10.8,37,0.00,,BKN,0.00,WUHU21623XXSP,2013-01-07 20:59:00,
2013-01-07 23:04:00,44.8,19.9,30.00,ESE,112,5.2,18.7,37,0.00,,BKN,0.00,WUHU21623XXSP,2013-01-07 21:04:00,
2013-01-07 23:09:00,44.8,19.9,29.99,NNE,22,0.0,18.7,37,0.00,,BKN,0.00,WUHU21623XXSP,2013-01-07 21:09:00,
2013-01-07 23:14:00,44.8,19.9,29.99,ESE,112,4.7,14.5,37,0.00,,BKN,0.00,WUHU21623XXSP,2013-01-07 21:14:00,
2013-01-07 23:19:00,44.6,19.7,30.00,SE,135,2.2,9.1,37,0.00,,BKN,0.00,WUHU21623XXSP,2013-01-07 21:19:00,
2013-01-07 23:24:00,44.4,19.5,30.00,NE,45,4.2,11.6,37,0.00,,BKN,0.00,WUHU21623XXSP,2013-01-07 21:24:00,
2013-01-07 23:29:00,44.2,19.3,30.00,ENE,67,4.7,13.1,37,0.00,,BKN,0.00,WUHU21623XXSP,2013-01-07 21:29:00,
2013-01-07 23:34:00,44.2,19.3,30.00,NNE,22,5.4,13.1,37,0.00,,BKN,0.00,WUHU21623XXSP,2013-01-07 21:34:00,
2013-01-07 23:39:00,44.2,19.3,30.00,NW,315,6.9,15.3,37,0.00,,BKN,0.00,WUHU21623XXSP,2013-01-07 21:39:00,
2013-01-07 23:44:00,44.1,19.2,30.00,NE,45,9.4,22.1,37,0.00,,BKN,0.00,WUHU21623XXSP,2013-01-07 21:44:00,
2013-01-07 23:49:00,44.1,19.2,30.01,NNE,22,8.4,22.1,37,0.00,,BKN,0.00,WUHU21623XXSP,2013-01-07 21:49:00,
2013-01-07 23:54:00,44.1,19.2,30.01,NNE,22,11.6,18.3,37,0.00,,BKN,0.00,WUHU21623XXSP,2013-01-07 21:54:00,
2013-01-07 23:59:00,44.1,19.2,30.00,NE,45,6.4,18.9,37,0.00,,BKN,0.00,WUHU21623XXSP,2013-01-07 21:59:00,